EN

Hourly Weather Maybulak

Today, 19 January, Tuesday

Time Temperature Precipitation Wind Pressure Humidity
00:00 +1°C° 0.1 mm 4 mps 646 mmHg 69%
01:00 +1°C° 0.1 mm 4 mps 646 mmHg 69%
02:00 +1°C° 0.1 mm 4 mps 646 mmHg 69%
03:00 +1°C° 0.1 mm 4 mps 646 mmHg 69%
04:00 +1°C° 0.1 mm 4 mps 646 mmHg 69%
05:00 +1°C° 0 mm 4 mps 646 mmHg 70%
06:00 +1°C° 0.1 mm 4 mps 647 mmHg 71%
07:00 +1°C° 0.1 mm 4 mps 647 mmHg 71%
08:00 +2°C° 0.1 mm 3 mps 647 mmHg 71%
09:00 +2°C° 0.1 mm 3 mps 648 mmHg 74%
10:00 +3°C° 0.1 mm 3 mps 648 mmHg 76%
11:00 +4°C° 0.1 mm 3 mps 648 mmHg 79%
12:00 +4°C° 0.1 mm 3 mps 648 mmHg 79%
13:00 +4°C° 0.1 mm 3 mps 648 mmHg 79%
14:00 +4°C° 0.1 mm 3 mps 648 mmHg 79%
15:00 +4°C° 0 mm 3 mps 648 mmHg 77%
16:00 +3°C° 0 mm 3 mps 648 mmHg 75%
17:00 +2°C° 0 mm 3 mps 648 mmHg 73%
18:00 +2°C° 0.2 mm 3 mps 649 mmHg 74%
19:00 +2°C° 0.2 mm 3 mps 649 mmHg 75%
20:00 +2°C° 0.2 mm 3 mps 649 mmHg 75%
21:00 +2°C° 0.1 mm 3 mps 650 mmHg 76%
22:00 +2°C° 0.1 mm 3 mps 650 mmHg 76%
23:00 +1°C° 0.1 mm 3 mps 650 mmHg 77%

Tomorrow, 20 January, Wednesday

Time Temperature Precipitation Wind Pressure Humidity
00:00 +1°C° 0.8 mm 3 mps 650 mmHg 81%
01:00 +1°C° 0.8 mm 3 mps 650 mmHg 86%
02:00 +1°C° 0.8 mm 3 mps 650 mmHg 91%
03:00 0°C° 0.5 mm 4 mps 651 mmHg 86%
04:00 0°C° 0.5 mm 4 mps 651 mmHg 80%
05:00 -1°C° 0.5 mm 4 mps 651 mmHg 75%
06:00 -1°C° 0.1 mm 4 mps 651 mmHg 74%
07:00 -1°C° 0.1 mm 4 mps 652 mmHg 73%
08:00 -1°C° 0.1 mm 3 mps 652 mmHg 73%
09:00 0°C° 0 mm 3 mps 652 mmHg 73%
10:00 +1°C° 0 mm 3 mps 653 mmHg 73%
11:00 +2°C° 0 mm 3 mps 653 mmHg 73%
12:00 +4°C° 0 mm 2 mps 653 mmHg 71%
13:00 +4°C° 0 mm 2 mps 652 mmHg 70%
14:00 +5°C° 0 mm 2 mps 652 mmHg 68%
15:00 +4°C° 0 mm 2 mps 651 mmHg 64%
16:00 +3°C° 0 mm 2 mps 651 mmHg 61%
17:00 +1°C° 0 mm 3 mps 650 mmHg 57%
18:00 +1°C° 0 mm 3 mps 650 mmHg 53%
19:00 0°C° 0 mm 3 mps 650 mmHg 49%
20:00 -1°C° 0 mm 4 mps 650 mmHg 45%
21:00 -1°C° 0 mm 4 mps 649 mmHg 44%
22:00 -1°C° 0 mm 4 mps 649 mmHg 42%
23:00 -1°C° 0 mm 4 mps 648 mmHg 40%

Day after tomorrow, 21 January, Thursday

Time Temperature Precipitation Wind Pressure Humidity
00:00 -1°C° 0 mm 4 mps 648 mmHg 39%
01:00 -1°C° 0 mm 4 mps 647 mmHg 38%
02:00 -2°C° 0 mm 4 mps 647 mmHg 36%
03:00 -2°C° 0 mm 4 mps 646 mmHg 35%
04:00 -2°C° 0 mm 4 mps 646 mmHg 35%
05:00 -2°C° 0 mm 4 mps 645 mmHg 34%
06:00 -2°C° 0 mm 4 mps 645 mmHg 34%
07:00 -2°C° 0 mm 4 mps 645 mmHg 34%
08:00 -1°C° 0 mm 4 mps 645 mmHg 33%
09:00 0°C° 0 mm 4 mps 645 mmHg 37%
10:00 +2°C° 0 mm 3 mps 645 mmHg 42%
11:00 +4°C° 0 mm 3 mps 645 mmHg 46%
12:00 +5°C° 0 mm 2 mps 645 mmHg 48%
13:00 +6°C° 0 mm 2 mps 644 mmHg 51%
14:00 +7°C° 0 mm 1 mps 644 mmHg 53%
15:00 +6°C° 0.1 mm 2 mps 643 mmHg 52%
16:00 +4°C° 0.1 mm 3 mps 643 mmHg 52%
17:00 +3°C° 0.1 mm 3 mps 642 mmHg 51%
18:00 +3°C° 0.4 mm 3 mps 642 mmHg 58%
19:00 +3°C° 0.4 mm 4 mps 642 mmHg 64%
20:00 +1°C° 0.4 mm 4 mps 643 mmHg 71%
21:00 +2°C° 0.9 mm 3 mps 642 mmHg 78%
22:00 +1°C° 0.9 mm 3 mps 642 mmHg 84%
23:00 +1°C° 0.9 mm 2 mps 642 mmHg 91%

22 January, Friday

Time Temperature Precipitation Wind Pressure Humidity
00:00 +1°C° 1.2 mm 2 mps 642 mmHg 92%
01:00 +1°C° 1.2 mm 2 mps 642 mmHg 92%
02:00 +1°C° 1.2 mm 2 mps 642 mmHg 93%
03:00 -1°C° 2 mm 4 mps 643 mmHg 94%
04:00 -1°C° 2 mm 5 mps 643 mmHg 94%
05:00 -3°C° 2 mm 6 mps 643 mmHg 95%
06:00 -3°C° 2 mm 6 mps 645 mmHg 95%
07:00 -4°C° 2 mm 6 mps 646 mmHg 95%
08:00 -5°C° 2 mm 6 mps 647 mmHg 96%
09:00 -6°C° 1.5 mm 6 mps 648 mmHg 95%
10:00 -9°C° 1.5 mm 7 mps 649 mmHg 95%
11:00 -12°C° 1.5 mm 7 mps 650 mmHg 95%
12:00 -12°C° 0.5 mm 7 mps 651 mmHg 95%
13:00 -12°C° 0.5 mm 6 mps 651 mmHg 95%
14:00 -12°C° 0.5 mm 6 mps 652 mmHg 95%
15:00 -13°C° 0.3 mm 5 mps 652 mmHg 95%
16:00 -14°C° 0.3 mm 5 mps 653 mmHg 96%
17:00 -14°C° 0.3 mm 4 mps 653 mmHg 96%
18:00 -14°C° 0.1 mm 3 mps 654 mmHg 96%
19:00 -14°C° 0.1 mm 3 mps 654 mmHg 95%
20:00 -14°C° 0.1 mm 2 mps 655 mmHg 94%
21:00 -14°C° 0.1 mm 2 mps 655 mmHg 95%
22:00 -14°C° 0.1 mm 2 mps 655 mmHg 95%
23:00 -14°C° 0.1 mm 2 mps 655 mmHg 95%

23 January, Saturday

Time Temperature Precipitation Wind Pressure Humidity
00:00 -14°C° 0.1 mm 2 mps 656 mmHg 95%
01:00 -14°C° 0.1 mm 2 mps 656 mmHg 94%
02:00 -15°C° 0.1 mm 2 mps 656 mmHg 93%
03:00 -15°C° 0 mm 2 mps 656 mmHg 90%
04:00 -15°C° 0 mm 2 mps 656 mmHg 86%
05:00 -16°C° 0 mm 2 mps 656 mmHg 83%
06:00 -16°C° 0 mm 2 mps 657 mmHg 80%
07:00 -16°C° 0 mm 2 mps 657 mmHg 78%
08:00 -17°C° 0 mm 3 mps 658 mmHg 75%
09:00 -15°C° 0 mm 3 mps 658 mmHg 75%
10:00 -14°C° 0 mm 3 mps 659 mmHg 75%
11:00 -12°C° 0 mm 3 mps 659 mmHg 75%
12:00 -10°C° 0 mm 3 mps 659 mmHg 76%
13:00 -10°C° 0 mm 3 mps 659 mmHg 78%
14:00 -10°C° 0 mm 3 mps 659 mmHg 79%
15:00 -12°C° 0 mm 3 mps 659 mmHg 81%
16:00 -12°C° 0 mm 2 mps 659 mmHg 83%
17:00 -13°C° 0 mm 2 mps 659 mmHg 84%
18:00 -13°C° 0 mm 2 mps 659 mmHg 78%
19:00 -13°C° 0 mm 2 mps 659 mmHg 72%
20:00 -14°C° 0 mm 2 mps 659 mmHg 66%
21:00 -14°C° 0 mm 2 mps 659 mmHg 63%
22:00 -14°C° 0 mm 2 mps 659 mmHg 60%
23:00 -14°C° 0 mm 2 mps 659 mmHg 57%

24 January, Sunday

Time Temperature Precipitation Wind Pressure Humidity
00:00 -14°C° 0 mm 2 mps 659 mmHg 55%
01:00 -14°C° 0 mm 2 mps 659 mmHg 52%
02:00 -14°C° 0 mm 2 mps 658 mmHg 50%
03:00 -12°C° 0 mm 1 mps 658 mmHg 49%
04:00 -12°C° 0 mm 1 mps 658 mmHg 48%
05:00 -11°C° 0 mm 1 mps 658 mmHg 47%
06:00 -11°C° 0 mm 1 mps 658 mmHg 47%
07:00 -13°C° 0 mm 2 mps 658 mmHg 47%
08:00 -12°C° 0 mm 2 mps 658 mmHg 48%
09:00 -9°C° 0 mm 1 mps 658 mmHg 51%
10:00 -7°C° 0 mm 1 mps 659 mmHg 55%
11:00 -4°C° 0 mm 1 mps 659 mmHg 58%
12:00 -4°C° 0 mm 1 mps 659 mmHg 62%
13:00 -3°C° 0 mm 1 mps 658 mmHg 66%
14:00 -3°C° 0 mm 1 mps 658 mmHg 70%
15:00 -4°C° 0 mm 1 mps 658 mmHg 72%
16:00 -7°C° 0 mm 1 mps 657 mmHg 74%
17:00 -8°C° 0 mm 1 mps 656 mmHg 75%
18:00 -8°C° 0 mm 1 mps 656 mmHg 71%
19:00 -8°C° 0 mm 1 mps 656 mmHg 67%
20:00 -8°C° 0 mm 1 mps 656 mmHg 62%
21:00 -8°C° 0 mm 1 mps 656 mmHg 61%
22:00 -8°C° 0 mm 1 mps 656 mmHg 59%
23:00 -8°C° 0 mm 1 mps 656 mmHg 58%
Show more

We Need Your Consent

Meteoprog and our Service Providers may store and access personal data such as cookies, device identifiers or other similar technologies on your device and process such data to personalise content and ads, as well as provide social media features and to analyse the traffic.

  • Store and/or access information on your device

    Cookies, device identifiers or other information can be stored or accessed on your device for the purposes indicated above.

  • Personalised ads and content, ad and content measurement, audience insights, and products development

    Ads and content can be personalised based on a profile. More data can be added to better personalise ads and content. Ad and content performance can be measured. Insights about the audience who saw the ads and content can be derived. Such data can be used to develop or improve user’s experience, systems and software.

By clicking ‘I Agree’ you will allow the use of indicated cookies, device identifiers, web beacons or other similar technologies. Your settings can be changed in the browser on your device.

For certain purposes, legitimate interests may be relied on, rather than consent. You can read more about this in our Privacy and Cookie Policy.